Houghton Lake, MI

6:02 PM EDT on May 26, 2018 (GMT -0400)
Roscommon County

Weather History for KHTL - July, 2013

Change the Weather History Date:

Tuesday, July 2, 2013

  Actual Average Record
Temperature  
Mean Temperature 63 °F 66 °F  
Max Temperature 76 °F 79 °F 99 °F (1921)
Min Temperature 50 °F 54 °F 28 °F (1918)
Degree Days  
Heating Degree Days 2 2  
Month to date heating degree days 4 4  
Since 1 June heating degree days 106 128  
Since 1 July heating degree days 4 4  
Cooling Degree Days 0 3  
Month to date cooling degree days 0 6  
Year to date cooling degree days 119 81  
Since 1 June cooling degree days 79 65  
Growing Degree Days 14 (Base 50)    
Moisture  
Dew Point 47 °F    
Average Humidity 58    
Maximum Humidity 78    
Minimum Humidity 38    
Precipitation  
Precipitation 0.02 in 0.08 in 0.51 in (1974)
Month to date precipitation 0.02 0.17  
Year to date precipitation 17.25 13.13  
Sea Level Pressure  
Sea Level Pressure 30.13 in    
Wind  
Wind Speed 6 mph (ENE)    
Max Wind Speed 14 mph    
Max Gust Speed 21 mph    
Visibility 10 miles    
Events      
T = Trace of Precipitation, MM = Missing Value Source: NWS Daily Summary

Daily Weather History Graph

Daily Weather History Graph

Search for Another Location

Airport or City:

Astronomy

Jul. 02, 2013 Rise Set
Actual Time 5:59 AM EDT 9:26 PM EDT
Civil Twilight 5:22 AM EDT 10:02 PM EDT
Nautical Twilight 4:34 AM EDT 10:50 PM EDT
Astronomical Twilight 3:33 AM EDT 11:51 PM EDT
Moon 2:07 AM EDT (7/2) 4:34 PM EDT (7/2)
Length of Visible Light 16h 40m
Length of Day
15h 27m
Waning Crescent, 26% of the Moon is Illuminated
Jul 2
Waning Crescent
Jul 8
New
Jul 15
First Quarter
Jul 22
Full
Jul 29
Last Quarter

Hourly Weather History & Observations

Time (EDT) Temp. Dew Point Humidity Pressure Visibility Wind Dir Wind Speed Gust Speed Precip Events Conditions
12:53 AM 52.0 °F 45.0 °F 77% 30.15 in 10.0 mi NNE 4.6 mph - N/A   Clear
1:53 AM 52.0 °F 42.1 °F 69% 30.13 in 10.0 mi NE 5.8 mph - N/A   Clear
2:53 AM 52.0 °F 41.0 °F 66% 30.13 in 10.0 mi NE 5.8 mph - N/A   Clear
3:53 AM 53.1 °F 41.0 °F 64% 30.14 in 10.0 mi ENE 4.6 mph - N/A   Partly Cloudy
4:53 AM 53.1 °F 42.1 °F 66% 30.14 in 10.0 mi NE 4.6 mph - N/A   Mostly Cloudy
5:53 AM 54.0 °F 43.0 °F 66% 30.14 in 10.0 mi NE 4.6 mph - N/A   Overcast
6:53 AM 53.1 °F 45.0 °F 74% 30.15 in 10.0 mi NE 4.6 mph - N/A   Overcast
7:53 AM 53.1 °F 48.0 °F 83% 30.16 in 10.0 mi ENE 5.8 mph - 0.00 in   Overcast
8:53 AM 55.9 °F 48.9 °F 77% 30.16 in 10.0 mi East 5.8 mph - 0.00 in   Overcast
10:53 AM 60.1 °F 53.1 °F 78% 30.17 in 10.0 mi NE 3.5 mph - 0.01 in   Overcast
11:53 AM 66.9 °F 52.0 °F 59% 30.16 in 10.0 mi NE 10.4 mph - N/A   Mostly Cloudy
12:53 PM 69.1 °F 48.9 °F 49% 30.14 in 10.0 mi ENE 9.2 mph - N/A   Mostly Cloudy
1:53 PM 71.1 °F 48.9 °F 45% 30.13 in 10.0 mi North 8.1 mph - N/A   Mostly Cloudy
2:53 PM 73.9 °F 48.9 °F 41% 30.13 in 10.0 mi ESE 10.4 mph - N/A   Overcast
3:53 PM 73.9 °F 46.9 °F 38% 30.12 in 10.0 mi NE 6.9 mph - N/A   Mostly Cloudy
4:53 PM 75.0 °F 48.9 °F 40% 30.10 in 10.0 mi East 12.7 mph - N/A   Overcast
5:53 PM 73.9 °F 48.9 °F 41% 30.10 in 10.0 mi East 5.8 mph - N/A   Mostly Cloudy
6:53 PM 71.1 °F 46.9 °F 42% 30.11 in 10.0 mi ESE 10.4 mph - N/A   Mostly Cloudy
7:53 PM 68.0 °F 48.9 °F 50% 30.12 in 10.0 mi SE 6.9 mph - N/A   Overcast
8:53 PM 66.0 °F 48.0 °F 52% 30.12 in 10.0 mi SE 4.6 mph - N/A   Overcast
9:53 PM 64.0 °F 51.1 °F 63% 30.12 in 10.0 mi ENE 5.8 mph - N/A   Overcast
10:53 PM 61.0 °F 46.9 °F 60% 30.13 in 10.0 mi ESE 5.8 mph - 0.01 in   Mostly Cloudy
11:53 PM 61.0 °F 46.9 °F 60% 30.13 in 10.0 mi Calm Calm - N/A   Scattered Clouds